User: anonymous   Login
Location: Oshawa
(43.9000°N, 78.8670°W)
Time: 19:03:53
(UTC-04:00)
Language:

Hubble Space Telescope - Orbit

View from above orbital plane
View from above orbital plane
View from above satellite
View from above satellite

Ground track
Ground track

The orbit data is extracted from the following two-line orbital elements,

1 20580U 90037B   15211.20617758  .00000944  00000-0  49137-4 0  9995
2 20580 028.4691 230.4196 0002834 344.4437 098.1890 15.07581944186305
Epoch (UTC): 30 July 2015 04:56:53
Eccentricity: 0.0002834
inclination: 28.4691°
perigee height: 541 km
apogee height: 545 km
right ascension of ascending node: 230.4196°
argument of perigee: 344.4437°
revolutions per day: 15.07581944
mean anomaly at epoch: 98.1890°
orbit number at epoch: 18630

The dashed part of the orbit path shows where the satellite is in the earth's shadow,  

DLR